Location: Saluda
(35.2377°N, 82.3468°W)
Time: 20:06:29
(UTC+00:00)

Vanguard 3 - Pass Details

Date: 12 October 2022
Orbit: 509 x 3255 km, 33.3° (Epoch: 01 December)

Event Time Altitude Azimuth Distance (km) Brightness Sun altitude
Rises 11:04:58 0° 245° (WSW) 3,187 - -6.5°
Exits shadow 11:05:55 - 243° (WSW) 2,791 9.4 -6.3°
Reaches altitude 10° 11:07:47 10° 239° (WSW) 2,018 8.7 -6.0°
Maximum altitude 11:11:53 43° 167° (SSE) 748 7.2 -5.1°
Drops below altitude 10° 11:15:23 10° 93° (E) 1,715 10.8 -4.4°
Sets 11:17:35 0° 87° (E) 2,641 12.1 -4.0°
